Regional Weather Roundup
Issued by NWS Memphis, TN

Home | Current Version | Previous Version | Text Only | Print | Product List | Glossary On
Versions: 1 2 3 4 5 6 7 8 9 10 11 12 13 14 15 16 17 18 19 20 21 22 23 24 25 26 27 28 29 30 31 32 33 34 35 36 37 38 39 40 41 42 43 44 45 46 47 48 49 50
000
ASUS44 KMEG 160810
RWRMEG
MEMPHIS CWA HOURLY WEATHER ROUNDUP
NATIONAL WEATHER SERVICE MEMPHIS TN
200 AM CST SAT DEC 16 2017

...WEST TENNESSEE...

CITY           SKY/WX    TMP DP  RH WIND       PRES   REMARKS
MEMPHIS INTL   CLOUDY    34  26  72 S6        30.21S WCI  29
NWS MEMPHIS      N/A     35 N/A N/A MISG        N/A
JACKSON        CLEAR     32  26  78 S8        30.21R WCI  25
COVINGTON      CLEAR     32  27  80 SW8       30.20S WCI  25
SOMERVILLE     CLEAR     36  27  69 S6        30.20S WCI  31
BOLIVAR        CLEAR     34  27  75 S5        30.21S WCI  30
LEXINGTON      PTCLDY    28  25  86 S6        30.22R WCI  22
SELMER         PTCLDY    30  25  80 SW5       30.22R WCI  25
SAVANNAH       PTCLDY    30  25  80 SE5       30.23S WCI  25
DYERSBURG      CLEAR     37  27  67 S5        30.19  WCI  33
UNION CITY     CLEAR     34  27  75 S8        30.17R WCI  27
PARIS          CLEAR     34  27  75 SW9       30.17R WCI  26
HUNTINGDON     PTCLDY    34  27  75 SW6       30.18R WCI  29


...EASTERN ARKANSAS...

CITY           SKY/WX    TMP DP  RH WIND       PRES   REMARKS
JONESBORO      CLEAR     36  30  79 SW10      30.17R WCI  28
WEST MEMPHIS   CLOUDY    30  27  88 S8        30.21R WCI  22
BATESVILLE     CLOUDY    38  28  67 CALM      30.16S
NEWPORT        CLEAR     31  29  92 S10       30.18  WCI  22
WALNUT RIDGE   PTCLDY    30  27  88 S8        30.16R WCI  22
BLYTHEVILLE    CLEAR     35  29  78 SW12      30.19R WCI  27
SEARCY         CLOUDY    26  26 100 CALM      30.19S
STUTTGART      CLOUDY    34  29  82 SW8       30.22R WCI  27
PINE BLUFF     CLOUDY    33  27  78 S6        30.22R WCI  28
MONTICELLO     CLOUDY    39  28  64 SW8       30.23S WCI  33


...NORTH MISSISSIPPI...

CITY           SKY/WX    TMP DP  RH WIND       PRES   REMARKS
TUPELO         CLOUDY    28  23  81 S3        30.26R
OXFORD         CLOUDY    28  25  86 CALM      30.26R
BATESVILLE     CLOUDY    26  24  93 CALM      30.26R
TUNICA           N/A    N/A N/A N/A S7        30.24S
CLARKSDALE     PTCLDY    32  28  86 S6        30.25R WCI  26
CORINTH        CLOUDY    27  23  86 CALM      30.24R
GREENWOOD      CLOUDY    29  26  89 CALM      30.26S
COLUMBUS       PTCLDY    24  23  96 CALM      30.27R
STARKVILLE     CLOUDY    27  25  93 CALM      30.28R
GOLDEN TRIANGL CLOUDY    26  24  92 VRB5      30.27R WCI  20


...SOUTHEAST MISSOURI...

CITY           SKY/WX    TMP DP  RH WIND       PRES   REMARKS
KENNETT        CLEAR     34  30  86 SW9       30.16R WCI  26
MALDEN         CLEAR     34  30  86 S8        30.16S WCI  27
WEST PLAINS    CLOUDY    33  25  72 S6        30.07S WCI  28
POPLAR BLUFF   CLEAR     31  27  85 S7        30.14R WCI  24
CAPE GIRARDEAU PTCLDY    32  26  78 CALM      30.13R


...NORTHWEST ALABAMA...

CITY           SKY/WX    TMP DP  RH WIND       PRES   REMARKS
MUSCLE SHOALS  CLOUDY    26  22  84 CALM      30.26R


...MIDDLE TENNESSEE...

CITY           SKY/WX    TMP DP  RH WIND       PRES   REMARKS
NASHVILLE      CLEAR     30  23  75 S3        30.23R
CLARKSVILLE    CLEAR     31  23  72 S7        30.18R WCI  24
COLUMBIA       MOCLDY    28  25  86 CALM      30.21R


...WESTERN KENTUCKY...

CITY           SKY/WX    TMP DP  RH WIND       PRES   REMARKS
PADUCAH        PTCLDY    36  25  64 SW6       30.14R WCI  31
FORT CAMPBELL  PTCLDY    33  24  71 S8        30.17R WCI  26


...CENTRAL ARKANSAS...

CITY           SKY/WX    TMP DP  RH WIND       PRES   REMARKS
LITTLE ROCK    CLOUDY    30  28  92 CALM      30.20S


SKY/WX REPORTED AS FAIR MEANS FEW OR NO CLOUDS BELOW
12 THOUSAND FEET.




USA.gov is the U.S. government's official web portal to all federal, state and local government web resources and services.